weather.gov     
National Weather Service

Regional Weather Roundup
NWS Homepage
This page is being discontinued on March 12, 2014.
The same data is available at this site. Please update your bookmarks.
Thank you, and we apologize for the inconvenience.
Please send an email to SR-SRH.Webmaster@noaa.gov with any concerns.


Current Version
Previous Version:    01  02  03  04  05  06  07  08  09  10  11  12  13  14  15  16  17  18  19  20  21  22  23  24  25  26  
[Printable]
644
ASUS42 KILM 300610
RWRILM
RWRILM
REGIONAL HOURLY WEATHER ROUNDUP
NATIONAL WEATHER SERVICE WILMINGTON NC
200 AM EDT WED JUL 30 2014

NOTE: "FAIR" INDICATES FEW OR NO CLOUDS BELOW 12,000 FEET WITH NO
SIGNIFICANT WEATHER AND/OR OBSTRUCTIONS TO VISIBILITY.

...............WFO WILMINGTON COUNTY WARNING AREA...............

......COASTAL NC AND SC COUNTIES......

CITY           SKY/WX    TMP DP  RH WIND       PRES   REMARKS
WILMINGTON     CLEAR     70  69  97 CALM      29.96F
SOUTHPORT      MOCLDY    73  67  82 CALM      29.96F
N MYRTLE BEACH PTCLDY    73  67  81 NE6       29.95F
MYRTLE BEACH   CLEAR     73  70  88 CALM      29.95S

......INLAND NC AND SC COUNTIES.......

CITY           SKY/WX    TMP DP  RH WIND       PRES   REMARKS
LUMBERTON      CLEAR     69  64  84 CALM      29.97F
ELIZABETHTOWN  CLEAR     68  64  88 CALM      29.98S
WHITEVILLE     CLEAR     69  66  90 CALM      29.97S
FLORENCE       CLEAR     69  61  75 NE5       29.97S
DARLINGTON     CLEAR     66  61  82 CALM      29.99S

....................REST OF NORTH CAROLINA......................

.........EASTERN NC.........

CITY           SKY/WX    TMP DP  RH WIND       PRES   REMARKS
CAPE HATTERAS  PTCLDY    74  64  71 NE6       29.97F
JACKSONVILLE   CLEAR     66  63  88 CALM      29.98S
MOREHEAD CITY  CLOUDY    75  66  73 NE6       29.97F
KENANSVILLE    CLEAR     63  61  93 CALM      29.99S
NEW BERN       CLEAR     73  65  75 E5        29.99F
ELIZABETH CITY CLEAR     67  61  81 CALM      29.99F

.........CENTRAL NC.........

CITY           SKY/WX    TMP DP  RH WIND       PRES   REMARKS
RALEIGH DURHAM PTCLDY    68  59  73 CALM      29.99F
ROCKY MOUNT    CLEAR     63  60  90 CALM      29.99F
ROANOKE RAPIDS NOT AVBL
FAYETTEVILLE   CLEAR     67  62  84 CALM      29.97F
HOFFMAN        CLEAR     64  61  93 N3        30.00F

.........WESTERN NC.........

CITY           SKY/WX    TMP DP  RH WIND       PRES   REMARKS
CHARLOTTE      PTCLDY    66  55  67 N8        30.02S
GREENSBORO     CLEAR     66  58  75 N6        30.03S
HICKORY        NOT AVBL
BOONE          NOT AVBL
ASHEVILLE      NOT AVBL

.....................REST OF SOUTH CAROLINA.....................

.........EASTERN SC.........

CITY           SKY/WX    TMP DP  RH WIND       PRES   REMARKS
CHARLESTON     CLEAR     76  69  79 CALM      29.94F
BEAUFORT MCAS  CLEAR     74  71  91 W3        29.94S
HILTON HEAD    NOT AVBL

.........CENTRAL SC.........

CITY           SKY/WX    TMP DP  RH WIND       PRES   REMARKS
COLUMBIA       MOCLDY    71  61  70 S3        29.97S
ORANGEBURG     CLOUDY    74  64  71 NE3       29.96F
SUMTER SHAW    PTCLDY    67  64  88 NE5       29.95F

.........WESTERN SC.........

CITY           SKY/WX    TMP DP  RH WIND       PRES   REMARKS
GREENVILLE     NOT AVBL
ROCK HILL      MOCLDY    69  57  65 NE7       30.02S
ANDERSON       CLEAR     68  54  60 N3        30.02S
CLEMSON        NOT AVBL
GREENWOOD      PTCLDY    68  58  70 N3        30.02S


...................COASTAL AND OFFSHORE REPORTS..................

................LOCAL PIERS AND NC RESERVE................


STATION/POSITION TIME  SKY/WX   TEMP    WIND        PRES    VSBY
                                AIR SEA DIR/SP/G
                 (UTC)          (F)     (DEG/KT/KT) (MB)    (MI)
JOHNY MRCER PIER 0600            77 84   80/  9/ 12 1014.0F
NC RESRV MASNBRO 0500            77      60/  6     1015.0S
OCEAN CREST PIER 0600            74 84   50/  4/  6 1013.7S
SPRINGMAID  PIER 0600            76 83  330/  3/  3 1014.2S


................COASTAL AND OFFSHORE BUOYS................


STATION/POSITION TIME  SKY/WX   TEMP    WIND        PRES    VSBY
                                AIR SEA DIR/SP/G
                 (UTC)          (F)     (DEG/KT/KT) (MB)    (MI)
DIMNDSHOAL 41025 0600                   VRB 14/ 16  1014.3F
WVE H/P(F/S)=  4/ 8 WND WVE H/P(F/S)=  3/ 5 SWL H/P/D(F/S/D)=  2/130/ 8

CAPE LOOKOUT     0500            78      60/ 13/ 15 1014.7F
ONSLOW BAY 41036 0600            79 81   70/ 12/ 14 1014.7S
WVE H/P(F/S)=  4/ 6 WND WVE H/P(F/S)=  3/ 5 SWL H/P/D(F/S/D)=  2/170/ 6

5 WRITEBCH 41038 0500            74 82   80/ 12/ 14   N/A
MASONBORO  41110 0600               82                N/A
WVE H/P(F/S)=  3/ 4 WND WVE H/P(F/S)=  3/ 4

WILM HARBR 41108 NOT AVBL
27WRITEBCH 41037 0500            74 82   70/ 16/ 17 1014.4F
FRYING PAN 41013 NOT AVBL
SUNST NRSH 41024 0500            78      60/ 14/ 16 1014.3F
CAPRS NRSH 41029 0500            81      70/  4/  6   N/A
EDISTO     41004 0600            81 84   60/  6/  8 1013.5F
WVE H/P(F/S)=  2/ 8 WND WVE H/P(F/S)=  2/ 3 SWL H/P/D(F/S/D)=  2/ 8



..........OFFSHORE BUOYS BEYOND 100 NM OFFSHORE...........
.....IN A TRIANGLE---HAT TO BERMUDA TO BAHAMAS TO HAT.....


STATION/POSITION TIME  SKY/WX   TEMP    WIND        PRES    VSBY
                                AIR SEA DIR/SP/G
                 (UTC)          (F)     (DEG/KT/KT) (MB)    (MI)
150E HAT   41001 NOT AVBL
W BERMUDA  41048 0502            82 82  170/ 19/ 21 1017.3F
WVE H/P(F/S)=  5/ 6 WND WVE H/P(F/S)=  5/ 6 SWL H/P/D(F/S/D)=  2/ 90/14

ATLANTIC S 41049 0537            81 83  110/ 10/ 12 1021.1F
WVE H/P(F/S)=  3/ 8 WND WVE H/P(F/S)=  2/ 4 SWL H/P/D(F/S/D)=  3/110/ 8

E BAHAMAS  41046 0454            82 84  130/ 12/ 14 1018.0F
WVE H/P(F/S)=  3/ 7 WND WVE H/P(F/S)=  2/ 5 SWL H/P/D(F/S/D)=  2/100/ 7

NE BAHAMAS 41047 0511            83 85  170/ 12/ 16 1017.9
WVE H/P(F/S)=  3/ 8 WND WVE H/P(F/S)=  2/ 6 SWL H/P/D(F/S/D)=  3/120/ 8

120E CANVRL41010 0600            84 84  230/ 14/ 16 1013.8F
WVE H/P(F/S)=  3/ 5 WND WVE H/P(F/S)=  3/ 5 SWL H/P/D(F/S/D)=  2/130/ 8


END




U.S. Dept. of Commerce
NOAA National Weather Service
1325 East West Highway
Silver Spring, MD 20910
E-mail: w-nws.webmaster@noaa.gov
Page last modified: May 16, 2007
NATIONAL WEATHER SERVICE: for Safety, for Work, for Fun - FOR LIFE